Simultaneous Nadir Overpasses (SNOs) Predictions

Prediction of SNOs near US between AQUA and NPP Satellite Orbit:

Table of predicted SNOs near US for the next 10.0 days since TLE Epoch: 2/15/2014
Index Date (AQUA) Time (AQUA) AQUA Lat,Lon Date (NPP) Time (NPP) NPP Lat,Lon Distance(km) Time Diff (sec)
1 02/17/2014 07:46:24 20.00, -89.59 02/17/2014 07:38:37 19.94, -89.39 21.82 467
2 02/17/2014 09:22:14 31.03,-111.59 02/17/2014 09:16:57 31.07,-111.86 26.32 317
3 02/20/2014 06:31:04 46.53, -65.03 02/20/2014 06:33:52 46.91, -66.93 151.18 168
4 02/20/2014 08:09:00 49.92, -88.40 02/20/2014 08:14:21 50.42, -90.80 179.67 321
5 02/20/2014 09:47:53 49.93,-113.11 02/20/2014 09:55:49 50.53,-116.12 224.03 476
6 02/22/2014 19:07:10 49.97, -92.63 02/22/2014 19:04:41 49.65, -94.49 138.25 149
7 02/22/2014 20:45:58 49.67,-117.23 02/22/2014 20:46:03 49.19,-119.66 184.27 5
8 02/25/2014 08:33:57 26.90,-100.28 02/25/2014 08:27:31 26.91,-100.29 2.01 386
9 02/25/2014 10:10:19 35.97,-122.56 02/25/2014 10:06:24 36.08,-123.06 46.30 235




NCC Satellite Simultaneous Nadir Overpasses (SNOs) Prediction Service
